NOAA 16 DEB

Satellite information

Favourite Embed

Satellite Type and Status

DEBRISIN ORBIT

Key statistics

Satellite NOAA 16 DEB at a glance.

Uptime

9115

Days in orbit

Revolutions

≈ 14.5

Per day

Orbit

SSO

Sun Synchronous Orbit

Inclination

99.0

Latest

Satellite identification and parameters

Extended collection of information and parameters for NOAA 16 DEB.

Object identification

Identified? True

Debris? True

Object name: NOAA 16 DEB

International designator: 2000-055HS

Object number (NORAD): 41349

Object ID (CCSDS): 41349

Country: UNITED STATES OF AMERICA (US)

Current information (Y/N): Y

RCS size: SMALL

Orbital parameters

Period: 99.422 minutes

Inclination: 98.9861 deg

SMA: 7109.119 km

Apoapsis: 752.658 km

Periapsis: 709.31 km

RAAN: 71.4681 deg

Eccentricy: 0.00304876

Argument of periapsis: 249.3127 deg

Mean anomaly: 110.4795 deg

Mean motion: 14.48368663 rev/day

Mean motion (dot): 0.00012739 rev/day2

B* drag term: 0.0033915421 1/REarth

Two-line elements (TLE)

Creation date: Sept. 1, 2025, 7:24 p.m.

Reference frame: TEME

Reference center: EARTH

Epoch: Sept. 1, 2025, 11:26 a.m. UTC

TLE line 0: 0 NOAA 16 DEB

TLE line 1: 1 41349U 00055HS 25244.47697005 .00012739 00000-0 33915-2 0 9991

TLE line 2: 2 41349 98.9861 71.4681 0030488 249.3127 110.4795 14.48368663501576

Live tracking on map

Real-time ground track for satellite NOAA 16 DEB.

In-orbit conjunctions

A list of the most updated potential collisions computed for object NOAA 16 DEB.

Target Orbit TCA Probability of collision Miss distance Type
IRIDIUM 24 LEO 2025-08-11 12:02:43 0.0002059078 751.0 (m) PAYLOAD
SSU 1 LEO 2025-06-26 02:14:04 0.0001289968 380.0 (m) PAYLOAD
COSMOS 1850 LEO 2024-08-12 03:55:23 0.0001509663 681.0 (m) PAYLOAD

Associated space launch

The NOAA K, L and M POES satellites begin the fifth generation of improved environmental monitoring in support of NOAA missions. The instrument payload has significant improvements and additions/deletions. The instrument changes have effected the spacecraft subsystems and data formats.

NOAA 16 DEB was lifted into orbit during the mission ‘Titan II SLV | NOAA 16’, on board a Titan II SLV space rocket.

The launch took place on Sept. 21, 2000, 10:22 a.m. from Space Launch Complex 4W.

For more information about the launch, click the button.

Launch to space Titan II SLV | NOAA 16
Titan II SLV | NOAA 16

Agency: N/A

Status: Launch Successful

Launch date: Sept. 21, 2000, 10:22 a.m. UTC

Rocket: Titan II SLV

Launch pad: Space Launch Complex 4W

Location: Vandenberg SFB, CA, USA

...

Latest news about this satellite

There are no fresh news available about this satellite. Check back as we update our databases every day.


Newsletter sign-up

Weekly statistics, charts and insights to help you stay on top of the space industry.